Miscellaneous Local Product
Issued by NWS Hastings, NE

Home | Current Version | Previous Version | Text Only | Print | Product List | Glossary Off
Versions: 1 2 3 4 5 6 7 8 9 10 11 12 13 14 15 16 17 18 19 20 21 22 23 24 25 26 27 28 29 30 31 32 33 34 35 36 37 38 39 40 41 42 43 44 45 46 47 48 49 50

000
AXUS43 KGID 250502
MISGRI

GID CWA HOURLY WEATHER ROUNDUP
NATIONAL WEATHER SERVICE HASTINGS NE
1200 AM CDT FRI JUL 25 2014

NOTE: "FAIR" INDICATES FEW OR NO CLOUDS BELOW 12,000 FEET WITH NO
SIGNIFICANT WEATHER AND/OR OBSTRUCTIONS TO VISIBILITY.

...SOUTH CENTRAL NEBRASKA...

CITY           SKY/WX    TMP DP  RH WIND       PRES   REMARKS
GRAND ISLAND   CLOUDY    78  67  68 SE12      29.88R
HASTINGS       CLOUDY    81  65  58 S13       29.86R
KEARNEY        CLOUDY    81  70  69 S15       29.86S
ORD            CLOUDY    74  70  87 SE10      29.86F
YORK           CLOUDY    75  66  73 S10G17    29.88R
AURORA         CLOUDY    77  68  73 SE9       29.88R
LEXINGTON      CLOUDY    85  71  61 S15       29.83S HX  90
HOLDREGE       LGT RAIN  82  69  65 S17       29.86F
HEBRON         MOCLDY    78  65  62 S17       29.88S

...NEBRASKA PANHANDLE...

CITY           SKY/WX    TMP DP  RH WIND       PRES   REMARKS
CHADRON        CLEAR     83  53  35 S18G26    29.75S
ALLIANCE       CLEAR     68  57  68 S7        29.87F
SCOTTSBLUFF    CLEAR     77  55  46 SE8       29.89S
SIDNEY         PTCLDY    73  55  53 SW10      29.96S

...WESTERN AND NORTH CENTRAL NEBRASKA...

CITY           SKY/WX    TMP DP  RH WIND       PRES   REMARKS
VALENTINE      CLEAR     74  60  61 S8        29.76R
AINSWORTH      PTCLDY    68  65  90 S15       29.79R
ONEILL         CLOUDY    74  62  66 S20G32    29.76F
BROKEN BOW     CLOUDY    76  68  76 SE10      29.86R
IMPERIAL       PTCLDY    74  57  55 S5        29.87F
NORTH PLATTE   MOCLDY    78  56  46 E3        29.82S
MCCOOK         MOCLDY    80  61  52 S7        29.84F

...EASTERN NEBRASKA...

CITY           SKY/WX    TMP DP  RH WIND       PRES   REMARKS
NORFOLK        LGT RAIN  73  66  78 S22G28    29.91R
SO SIOUX CITY  CLOUDY    74  61  63 S14       29.83F
TEKAMAH        MOCLDY    75  60  59 S10       29.85S
COLUMBUS       CLOUDY    75  61  60 S10G17    29.89R
ALBION         TSTM      69  65  88 SE10      29.90F
OMAHA EPPLEY   PTCLDY    74  59  59 S23G29    29.86F
OFFUTT AFB     PTCLDY    73  62  67 SE16G22   29.86F
MILLARD        PTCLDY    74  61  63 SE12G18   29.87S
LINCOLN        MOCLDY    77  61  57 S17       29.87F
NEBRASKA CITY  CLEAR     71  59  65 S20G25    29.89F
BEATRICE       PTCLDY    74  63  69 S15G23    29.88F
FALLS CITY     CLEAR     72  61  68 S14       29.90F

...NORTHERN KANSAS...

CITY           SKY/WX    TMP DP  RH WIND       PRES   REMARKS
GOODLAND       MOCLDY    83  50  31 SW13      29.94R
HILL CITY      CLOUDY    85  69  58 S17G30    29.84F
NORTON         CLEAR     84  64  51 S16G29    29.84S
PHILLIPSBURG   CLEAR     86  70  58 S12G20    29.84S HX  90
SMITH CENTER   CLEAR     79  66  65 SE12      29.86F
HAYS           PTCLDY    64  64 100 S21G28    29.87F
RUSSELL        PTCLDY    83  71  67 S20G30    29.86F
CONCORDIA      CLEAR     79  68  69 SE20G28   29.89S
SALINA         CLEAR     82  68  62 S17       29.90S
TOPEKA         CLEAR     77  58  51 SE13      29.95F



USA.gov is the U.S. government's official web portal to all federal, state and local government web resources and services.